TimeEST,TemperatureF,Dew PointF,Humidity,Sea Level PressureIn,VisibilityMPH,Wind Direction,Wind SpeedMPH,Gust SpeedMPH,PrecipitationIn,Events,Conditions,WindDirDegrees,DateUTC
12:00 AM,32.0,32.0,100,29.95,0.8,Calm,Calm,-,N/A,,Overcast,0,2003-01-06 05:00:00
12:07 AM,32.0,32.0,100,29.95,1.0,Calm,Calm,-,N/A,,Overcast,0,2003-01-06 05:07:00
12:41 AM,32.0,32.0,100,29.95,0.8,Calm,Calm,-,0.00,,Overcast,0,2003-01-06 05:41:00
12:53 AM,30.9,30.9,100,29.98,1.2,Calm,Calm,-,0.00,Snow,Light Snow,0,2003-01-06 05:53:00
1:08 AM,32.0,32.0,100,29.95,0.8,Calm,Calm,-,0.00,Snow,Light Snow,0,2003-01-06 06:08:00
1:27 AM,30.2,30.2,100,29.95,1.0,Calm,Calm,-,0.00,Snow,Light Snow,0,2003-01-06 06:27:00
1:38 AM,32.0,32.0,100,29.95,0.8,Calm,Calm,-,0.00,Snow,Light Snow,0,2003-01-06 06:38:00
1:53 AM,30.9,30.9,100,29.99,0.8,Calm,Calm,-,0.00,Snow,Light Snow,0,2003-01-06 06:53:00
2:02 AM,30.2,30.2,100,29.96,1.0,Calm,Calm,-,0.00,Snow,Light Snow,0,2003-01-06 07:02:00
2:20 AM,30.2,30.2,100,29.96,1.0,Calm,Calm,-,0.01,Snow,Light Snow,0,2003-01-06 07:20:00
2:53 AM,30.9,30.9,100,30.00,1.0,Calm,Calm,-,0.01,Snow,Light Snow,0,2003-01-06 07:53:00
3:13 AM,30.2,30.2,100,29.96,1.2,Calm,Calm,-,0.01,Snow,Light Snow,0,2003-01-06 08:13:00
3:53 AM,30.9,30.9,100,30.00,1.5,West,3.5,-,0.01,Snow,Light Snow,280,2003-01-06 08:53:00
4:04 AM,30.2,30.2,100,29.95,2.5,West,4.6,-,0.00,Snow,Light Snow,280,2003-01-06 09:04:00
4:23 AM,30.2,30.2,100,29.95,1.8,Calm,Calm,-,0.01,Snow,Light Snow,0,2003-01-06 09:23:00
4:30 AM,30.2,30.2,100,29.95,2.0,West,3.5,-,0.01,Snow,Light Snow,280,2003-01-06 09:30:00
4:39 AM,30.2,30.2,100,29.96,1.8,West,3.5,-,0.01,Snow,Light Snow,280,2003-01-06 09:39:00
4:53 AM,30.9,30.9,100,29.99,1.2,West,3.5,-,0.01,Snow,Light Snow,280,2003-01-06 09:53:00
5:03 AM,30.2,30.2,100,29.95,2.0,Calm,Calm,-,0.00,Snow,Light Snow,0,2003-01-06 10:03:00
5:09 AM,30.2,30.2,100,29.95,3.0,Calm,Calm,-,0.00,Snow,Light Snow,0,2003-01-06 10:09:00
5:53 AM,30.9,30.9,100,29.99,4.0,West,3.5,-,0.01,,Overcast,280,2003-01-06 10:53:00
6:24 AM,30.2,30.2,100,29.95,7.0,Calm,Calm,-,0.00,,Overcast,0,2003-01-06 11:24:00
6:33 AM,30.2,30.2,100,29.95,7.0,West,3.5,-,0.00,,Overcast,280,2003-01-06 11:33:00
6:53 AM,30.9,30.9,100,29.99,6.0,Calm,Calm,-,0.00,Snow,Light Snow,0,2003-01-06 11:53:00
7:02 AM,30.2,30.2,100,29.95,7.0,West,3.5,-,0.00,Snow,Light Snow,280,2003-01-06 12:02:00
7:18 AM,30.2,30.2,100,29.95,8.0,West,4.6,-,0.00,Snow,Light Snow,280,2003-01-06 12:18:00
7:53 AM,30.9,30.9,100,29.99,5.0,Calm,Calm,-,0.01,Snow,Light Snow,0,2003-01-06 12:53:00
8:03 AM,30.2,30.2,100,29.96,1.5,West,3.5,-,0.00,Snow,Light Snow,280,2003-01-06 13:03:00
8:16 AM,30.2,30.2,100,29.96,1.5,West,3.5,-,0.00,Snow,Light Snow,280,2003-01-06 13:16:00
8:39 AM,30.2,30.2,100,29.96,2.0,Calm,Calm,-,0.00,Snow,Light Snow,0,2003-01-06 13:39:00
8:53 AM,30.9,30.9,100,30.01,2.5,Calm,Calm,-,0.00,Snow,Light Snow,0,2003-01-06 13:53:00
9:53 AM,30.9,30.9,100,30.00,1.5,West,3.5,-,0.02,Snow,Light Snow,280,2003-01-06 14:53:00
10:07 AM,30.2,30.2,100,29.96,0.8,West,3.5,-,0.00,Snow,Light Snow,280,2003-01-06 15:07:00
10:45 AM,32.0,32.0,100,29.96,1.2,West,3.5,-,0.03,Snow,Light Snow,260,2003-01-06 15:45:00
10:53 AM,32.0,30.9,96,30.00,1.2,West,4.6,-,0.04,Snow,Light Snow,260,2003-01-06 15:53:00
11:15 AM,32.0,30.2,93,29.95,0.8,WNW,4.6,-,0.02,Snow,Light Snow,290,2003-01-06 16:15:00
11:22 AM,30.2,30.2,100,29.95,0.8,WNW,3.5,-,0.02,Snow,Light Snow,290,2003-01-06 16:22:00
11:29 AM,32.0,32.0,100,29.95,1.0,WNW,3.5,-,0.03,Snow,Light Snow,290,2003-01-06 16:29:00
11:44 AM,30.2,30.2,100,29.94,1.0,NW,3.5,-,0.04,Snow,Light Snow,310,2003-01-06 16:44:00
11:53 AM,30.9,30.0,96,29.98,0.8,NW,5.8,-,0.04,Snow,Light Snow,310,2003-01-06 16:53:00
12:01 PM,30.2,30.2,100,29.94,1.0,WNW,4.6,-,0.01,Snow,Light Snow,300,2003-01-06 17:01:00
12:07 PM,30.2,30.2,100,29.94,0.8,NW,3.5,-,0.02,Snow,Light Snow,310,2003-01-06 17:07:00
12:36 PM,30.2,30.2,100,29.94,1.0,Variable,3.5,-,0.04,Snow,Light Snow,0,2003-01-06 17:36:00
12:46 PM,30.2,30.2,100,29.94,1.5,Calm,Calm,-,0.04,Snow,Light Snow,0,2003-01-06 17:46:00
12:53 PM,30.9,30.0,96,29.98,1.2,Calm,Calm,-,0.05,Snow,Light Snow,0,2003-01-06 17:53:00
1:00 PM,30.2,28.4,93,29.94,1.2,NW,8.1,-,0.01,Snow,Light Snow,320,2003-01-06 18:00:00
1:18 PM,30.2,28.4,93,29.94,2.0,Variable,4.6,-,0.02,Snow,Light Snow,0,2003-01-06 18:18:00
1:27 PM,30.2,28.4,93,29.94,5.0,Variable,4.6,-,0.03,Snow,Light Snow,0,2003-01-06 18:27:00
1:38 PM,30.2,28.4,93,29.94,2.5,Variable,5.8,-,0.03,Snow,Light Snow,0,2003-01-06 18:38:00
1:53 PM,30.0,28.0,92,29.98,1.2,Variable,4.6,-,0.04,Snow,Light Snow,0,2003-01-06 18:53:00
2:02 PM,30.2,28.4,93,29.94,0.8,NW,5.8,-,0.00,Snow,Light Snow,320,2003-01-06 19:02:00
2:04 PM,30.2,28.4,93,29.94,1.0,Variable,3.5,-,0.00,Snow,Light Snow,0,2003-01-06 19:04:00
2:07 PM,30.2,28.4,93,29.94,1.2,Variable,3.5,-,0.00,Snow,Light Snow,0,2003-01-06 19:07:00
2:18 PM,30.2,28.4,93,29.94,2.0,WNW,4.6,-,0.00,Snow,Light Snow,300,2003-01-06 19:18:00
2:32 PM,30.2,26.6,86,29.94,2.5,Variable,5.8,-,0.01,Snow,Light Snow,0,2003-01-06 19:32:00
2:53 PM,30.0,28.0,92,29.99,0.8,WNW,3.5,-,0.01,Snow,Light Snow,300,2003-01-06 19:53:00
3:02 PM,30.2,28.4,93,29.96,1.5,WNW,4.6,-,0.00,Snow,Light Snow,290,2003-01-06 20:02:00
3:14 PM,30.2,26.6,86,29.96,2.5,NW,5.8,-,0.00,Snow,Light Snow,310,2003-01-06 20:14:00
3:29 PM,30.2,28.4,93,29.96,3.0,Calm,Calm,-,0.01,Snow,Light Snow,0,2003-01-06 20:29:00
3:53 PM,30.0,28.0,92,30.01,1.5,NW,4.6,-,0.01,Snow,Light Snow,310,2003-01-06 20:53:00
4:00 PM,30.2,26.6,86,29.98,3.0,Variable,6.9,-,0.00,Snow,Light Snow,0,2003-01-06 21:00:00
4:15 PM,28.4,26.6,93,29.99,1.0,NW,6.9,-,0.00,Snow,Light Snow,310,2003-01-06 21:15:00
4:25 PM,28.4,28.4,100,30.00,0.5,Variable,4.6,-,0.00,Fog-Snow,Light Snow,0,2003-01-06 21:25:00
4:40 PM,28.4,24.8,86,30.00,9.0,NW,8.1,-,0.00,Snow,Light Snow,310,2003-01-06 21:40:00
4:53 PM,28.9,26.1,89,30.05,5.0,WNW,5.8,-,0.00,Snow,Light Snow,300,2003-01-06 21:53:00
5:00 PM,28.4,26.6,93,30.01,4.0,WNW,9.2,-,0.00,Snow,Light Snow,300,2003-01-06 22:00:00
5:05 PM,28.4,26.6,93,30.01,1.8,Variable,6.9,-,0.00,Snow,Light Snow,0,2003-01-06 22:05:00
5:17 PM,28.4,24.8,86,30.02,1.2,NW,8.1,-,0.00,Snow,Light Snow,320,2003-01-06 22:17:00
5:29 PM,26.6,24.8,93,30.03,2.5,Variable,6.9,-,0.00,Snow,Light Snow,0,2003-01-06 22:29:00
5:53 PM,27.0,23.0,85,30.09,3.0,NW,9.2,-,0.00,Snow,Light Snow,310,2003-01-06 22:53:00
6:01 PM,26.6,23.0,86,30.05,2.0,NW,10.4,16.1,N/A,Snow,Blowing Snow,310,2003-01-06 23:01:00
6:34 PM,26.6,24.8,93,30.06,1.8,West,8.1,-,N/A,Snow,Blowing Snow,280,2003-01-06 23:34:00
6:53 PM,25.0,23.0,92,30.12,1.5,NW,6.9,-,N/A,Snow,Blowing Snow,310,2003-01-06 23:53:00
7:06 PM,24.8,23.0,93,30.09,2.0,NW,8.1,-,N/A,Snow,Blowing Snow,310,2003-01-07 00:06:00
7:33 PM,24.8,21.2,86,30.11,5.0,NW,6.9,-,N/A,Snow,Blowing Snow,310,2003-01-07 00:33:00
7:53 PM,25.0,18.0,75,30.16,7.0,NW,8.1,20.7,N/A,Snow,Blowing Snow,310,2003-01-07 00:53:00
8:01 PM,24.8,17.6,74,30.12,9.0,NW,9.2,-,N/A,Snow,Blowing Snow,320,2003-01-07 01:01:00
8:53 PM,24.1,16.0,71,30.19,10.0,NW,8.1,-,N/A,Snow,Blowing Snow,310,2003-01-07 01:53:00
9:35 PM,23.0,17.6,80,30.16,8.0,Variable,5.8,-,N/A,Snow,Blowing Snow,0,2003-01-07 02:35:00
9:53 PM,23.0,16.0,74,30.21,10.0,NW,8.1,-,0.00,Snow,Light Snow,320,2003-01-07 02:53:00
10:53 PM,21.9,17.1,82,30.22,8.0,NW,6.9,-,0.00,Snow,Light Snow,310,2003-01-07 03:53:00
11:00 PM,21.2,15.8,80,30.18,8.0,NW,6.9,-,0.00,Snow,Light Snow,310,2003-01-07 04:00:00
11:24 PM,21.2,14.0,74,30.18,9.0,NW,9.2,-,0.00,Snow,Light Snow,310,2003-01-07 04:24:00
11:53 PM,21.9,12.9,68,30.22,9.0,NW,9.2,-,0.00,Snow,Light Snow,310,2003-01-07 04:53:00